Location: Drocourt
(49.0571°N, 1.7669°E)
Time: 00:23:58
(UTC+00:00)

SR - Pass Details

Date: 19 April 2024
Orbit: 579 x 859 km, 66.7° (Epoch: 25 May)

Event Time Altitude Azimuth Distance (km) Brightness Sun altitude
Rises 10:56:36 0° 319° (NW) 2,987 ? 50.7°
Reaches altitude 10° 10:59:04 10° 312° (NW) 2,029 ? 50.8°
Maximum altitude 11:03:16 38° 244° (WSW) 937 ? 51.0°
Drops below altitude 10° 11:07:14 10° 176° (S) 1,914 ? 51.2°
Sets 11:09:31 0° 168° (SSE) 2,793 ? 51.4°
